DW3277 Weather Reports


time (UTC)temp
F
wind
direction
speed
knots
gust
knots
rain 1hr
in
rain 24hr
in
rain mn
in
humidity
%
barometer
mb
20260505101549 51 63 0.0 0.0 0.00 0.00 0.00 84 1008.8
20260505100118 52 63 0.0 0.0 0.00 0.00 0.00 84 1008.6
20260505094545 52 63 0.0 0.0 0.00 0.00 0.00 84 1008.5
20260505093042 53 63 0.0 0.0 0.00 0.00 0.00 83 1008.2
20260505091552 53 63 0.0 0.0 0.00 0.00 0.00 83 1008.2
20260505090053 54 63 0.0 0.0 0.00 0.00 0.00 82 1008.1
20260505084535 54 63 0.0 0.0 0.00 0.00 0.00 82 1008.1
20260505083045 55 63 0.0 0.0 0.00 0.00 0.00 81 1008.0
20260505081534 55 63 0.0 0.0 0.00 0.00 0.00 80 1008.0
20260505080044 56 63 0.0 0.0 0.00 0.00 0.00 80 1007.8
20260505074526 56 63 0.0 0.0 0.00 0.00 0.00 78 1007.7
20260505073025 57 63 0.0 0.0 0.00 0.00 0.00 77 1007.7
20260505071527 58 63 0.0 0.0 0.00 0.00 0.00 76 1007.5
20260505070016 58 63 0.0 0.0 0.00 0.00 0.00 76 1007.5
20260505064515 58 63 0.0 0.0 0.00 0.00 0.00 74 1007.2
20260505063026 60 63 0.0 0.0 0.00 0.00 0.00 73 1007.0
20260505061517 60 63 0.0 0.0 0.00 0.00 0.00 71 1006.8
20260505060014 61 63 0.0 0.0 0.00 0.00 0.00 69 1006.6
20260505054515 62 63 0.0 0.0 0.00 0.00 0.00 68 1006.5
20260505053013 63 63 0.0 0.0 0.00 0.00 0.00 66 1006.4
20260505051518 64 63 0.0 0.0 0.00 0.00 0.00 63 1006.2
20260505041511 69 62 0.9 0.0 0.00 0.00 0.00 54 1005.7
20260505040010 70 62 0.9 0.0 0.00 0.00 0.00 53 1005.5
20260505034510 71 62 0.0 0.0 0.00 0.00 0.00 52 1005.1
20260505033009 72 62 0.9 0.0 0.00 0.00 0.00 49 1004.7
20260505031522 73 62 1.7 0.0 0.00 0.00 0.00 45 1004.2
20260505030008 74 62 1.7 0.0 0.00 0.00 0.00 43 1003.8
20260505024507 75 54 0.9 0.0 0.00 0.00 0.00 41 1003.5
20260505023007 75 54 1.7 0.0 0.00 0.00 0.00 40 1003.1
20260505021507 77 52 0.9 0.0 0.00 0.00 0.00 36 1003.0
20260505020006 80 146 2.6 0.0 0.00 0.00 0.00 33 1002.9
20260505014510 82 200 1.7 0.0 0.00 0.00 0.00 28 1002.0
20260505013006 82 200 1.7 0.0 0.00 0.00 0.00 30 1002.0
20260505011506 82 200 3.5 0.0 0.00 0.00 0.00 29 1002.0
20260505010011 82 200 3.5 0.0 0.00 0.00 0.00 33 1002.1
20260505004502 83 200 3.5 0.0 0.00 0.00 0.00 29 1002.1
20260505003002 83 188 2.6 0.0 0.00 0.00 0.00 30 1002.3
20260505001502 83 186 4.3 0.0 0.00 0.00 0.00 32 1002.3
20260505000105 83 182 3.5 0.0 0.00 0.00 0.00 32 1002.5
20260504234559 83 209 3.5 0.0 0.00 0.00 0.00 32 1002.6
20260504233105 83 209 4.3 0.0 0.00 0.00 0.00 31 1002.7
20260504231557 83 208 2.6 0.0 0.00 0.00 0.00 32 1002.8
20260504230112 83 208 2.6 0.0 0.00 0.00 0.00 31 1003.0
20260504224607 83 207 2.6 0.0 0.00 0.00 0.00 32 1003.2
20260504223051 82 205 3.5 0.0 0.00 0.00 0.00 32 1003.3
20260504221549 82 202 2.6 0.0 0.00 0.00 0.00 32 1003.6
20260504220055 82 202 3.5 0.0 0.00 0.00 0.00 33 1003.6
20260504214547 83 202 1.7 0.0 0.00 0.00 0.00 33 1003.9
20260504213044 82 202 1.7 0.0 0.00 0.00 0.00 32 1004.0
20260504211542 81 202 1.7 0.0 0.00 0.00 0.00 31 1004.2
20260504210053 81 202 1.7 0.0 0.00 0.00 0.00 30 1004.3
20260504204545 81 202 2.6 0.0 0.00 0.00 0.00 28 1004.4
20260504203035 80 202 2.6 0.0 0.00 0.00 0.00 31 1004.5
20260504201532 80 202 2.6 0.0 0.00 0.00 0.00 32 1004.7
20260504200040 79 200 3.5 0.0 0.00 0.00 0.00 33 1004.8
20260504194528 79 200 1.7 0.0 0.00 0.00 0.00 33 1004.9
20260504193024 78 200 2.6 0.0 0.00 0.00 0.00 33 1005.1
20260504191523 77 200 1.7 0.0 0.00 0.00 0.00 33 1005.2
20260504190020 74 200 1.7 0.0 0.00 0.00 0.00 37 1005.5
20260504184524 73 200 1.7 0.0 0.00 0.00 0.00 40 1005.8
20260504183017 72 200 1.7 0.0 0.00 0.00 0.00 40 1006.0
20260504181508 71 200 0.9 0.0 0.00 0.00 0.00 41 1006.2
20260504180005 70 200 0.9 0.0 0.00 0.00 0.00 42 1006.4
20260504174502 69 200 0.9 0.0 0.00 0.00 0.00 43 1006.7
20260504173059 69 200 0.9 0.0 0.00 0.00 0.00 45 1006.8
20260504171556 68 200 0.0 0.0 0.00 0.00 0.00 44 1007.0